[[{"header":{"parameterUnit":"m.s-1","parameterCategory":1,"la1":30.2991,"la2":30.254,"lo1":-89.0895,"lo2":-89.0444,"dy":0.0017,"dx":0.0017,"nx":28,"ny":28,"refTime":"2025-07-13T21:00:00:Z","depth":0,"parameterNumber":2,"parameterNumberName":"U-component_of_WINDS"},"data":[0,0,0,0,0,0,0,0,0,0,0,0,0,0,0,0,0,0,0,0,0,0,0,0,0,0,0,0,0,0,0,0,0,0,0,0,0,0,0,0,0,0,0,0,0,0,0,0,0,0,0,0,0,0,0,0,0,0,-0.0959,-0.0959,0,-0.0954,-0.0954,-0.0954,-0.0938,-0.0937,-0.0937,-0.0936,-0.0932,-0.0932,-0.0932,0,0,0,0,0,0,0,0,0,0,0,0,0,-0.0954,-0.0954,-0.0959,-0.0959,-0.0959,-0.0954,-0.0954,-0.0954,-0.0938,-0.0937,-0.0937,-0.0936,-0.0932,-0.0932,-0.0932,0,0,0,0,0,0,0,0,0,0,0,0,0,-0.0953,-0.0954,-0.0959,-0.095,-0.0949,-0.0954,-0.0954,-0.0954,-0.0938,-0.0937,-0.0937,-0.0936,-0.0932,-0.0932,-0.0932,-0.0945,0,0,-0.0933,-0.0934,0,0,0,0,0,0,0,0,-0.0953,-0.0953,-0.0951,-0.0951,-0.095,-0.0946,-0.095,-0.0951,-0.0938,-0.0942,-0.0936,-0.0936,-0.0937,-0.0937,-0.0937,-0.0945,-0.0945,-0.0933,-0.0934,-0.0934,-0.0934,0,0,0,0,0,0,0,-0.0953,-0.0953,-0.0957,-0.0951,-0.095,-0.0946,-0.0945,-0.095,-0.0943,-0.0942,-0.094,-0.094,-0.0936,-0.0937,-0.0937,-0.0945,-0.0933,-0.0934,-0.0934,-0.0934,-0.0962,-0.0962,0,0,0,0,0,0,-0.0955,-0.0954,-0.0957,-0.0957,-0.095,-0.0947,-0.0946,-0.0948,-0.0943,-0.0941,-0.0941,-0.0939,-0.0937,-0.0937,-0.0937,-0.095,-0.0934,-0.0934,-0.0934,-0.0961,-0.0962,-0.0962,0,0,0,0,0,0,-0.0954,-0.0955,-0.0957,-0.0955,-0.0955,-0.0947,-0.0949,-0.0948,-0.0948,-0.0942,-0.094,-0.0942,-0.0936,-0.0936,-0.0943,-0.095,-0.0934,-0.0934,-0.0961,-0.0961,-0.0962,-0.0979,0,0,0,0,0,0,-0.0954,-0.0955,-0.096,-0.0955,-0.0955,-0.0964,-0.095,-0.0948,-0.0949,-0.0947,-0.0943,-0.0942,-0.0936,-0.0943,-0.0943,-0.095,-0.0935,-0.096,-0.0961,-0.0962,-0.0977,-0.098,-0.0982,0,0,0,0,0,-0.0954,-0.0965,-0.096,-0.0961,-0.0961,-0.0964,-0.0964,-0.0957,-0.0949,-0.0954,-0.095,-0.0942,-0.0949,-0.0943,-0.0944,-0.0951,-0.0959,-0.0961,-0.0962,-0.0976,-0.0979,-0.0982,0,0,0,0,0,0,-0.0972,-0.0965,-0.0959,-0.0969,-0.0967,-0.0961,-0.0967,-0.096,-0.0961,-0.0959,-0.095,-0.0949,-0.0957,-0.0955,-0.0948,-0.0963,-0.0953,-0.0954,-0.0964,-0.0967,-0.0969,-0.0969,-0.0935,0,0,0,0,0,-0.0977,-0.098,-0.0973,-0.0983,-0.0982,-0.0975,-0.0976,-0.097,-0.0968,-0.0967,-0.0964,-0.0962,-0.0964,-0.0965,-0.0967,-0.0977,-0.0975,-0.0982,-0.0985,-0.0987,-0.0988,-0.0992,-0.0994,-0.0966,-0.0966,-0.0966,0,0,-0.0987,-0.0984,-0.0986,-0.0986,-0.0984,-0.0987,-0.0974,-0.0979,-0.0981,-0.0968,-0.0974,-0.0971,-0.0969,-0.0977,-0.098,-0.0975,-0.0995,-0.0988,-0.099,-0.099,-0.0993,-0.0996,-0.0998,-0.0967,-0.0967,-0.0967,0,0,-0.1007,-0.1005,-0.1012,-0.101,-0.1007,-0.1002,-0.1004,-0.0999,-0.0996,-0.1002,-0.0992,-0.0995,-0.0998,-0.0996,-0.0996,-0.1015,-0.1007,-0.1015,-0.1027,-0.1031,-0.1033,-0.1035,-0.1041,-0.1043,-0.1017,-0.1017,-0.1017,0,-0.102,-0.1025,-0.1017,-0.1021,-0.1021,-0.1009,-0.1016,-0.1014,-0.1012,-0.1012,-0.1006,-0.101,-0.1007,-0.1014,-0.1019,-0.1019,-0.102,-0.1015,-0.1034,-0.1036,-0.1037,-0.1042,-0.1045,-0.1018,-0.1017,-0.1017,-0.1017,0,-0.1041,-0.1044,-0.1049,-0.1047,-0.1047,-0.1053,-0.1045,-0.1047,-0.1041,-0.1036,-0.1041,-0.1038,-0.1038,-0.1039,-0.1034,-0.1046,-0.1042,-0.1036,-0.1025,-0.1041,-0.1046,-0.1048,-0.1019,-0.1019,-0.1018,-0.1018,0,0,-0.1072,-0.1064,-0.1066,-0.1064,-0.106,-0.1062,-0.1066,-0.1066,-0.1067,-0.1066,-0.1069,-0.1072,-0.1065,-0.1064,-0.1059,-0.1062,-0.1076,-0.1055,-0.1055,-0.1058,-0.1087,-0.1091,-0.1094,-0.1071,-0.1071,-0.1072,-0.1087,0,-0.109,-0.1097,-0.1089,-0.1098,-0.11,-0.1089,-0.1093,-0.109,-0.1086,-0.1087,-0.1082,-0.1084,-0.1076,-0.1075,-0.1078,-0.1073,-0.1081,-0.1072,-0.1073,-0.1073,-0.1073,-0.1096,-0.1101,-0.1116,-0.1088,-0.1089,-0.1089,0,-0.1112,-0.1111,-0.112,-0.1113,-0.1114,-0.1118,-0.1116,-0.1117,-0.1114,-0.1111,-0.111,-0.1102,-0.1106,-0.1097,-0.1101,-0.1095,-0.1095,-0.1093,-0.1093,-0.1092,-0.1081,-0.1095,-0.112,-0.1122,-0.1092,-0.1092,-0.1092,0,-0.1132,-0.1133,-0.1138,-0.1137,-0.1131,-0.1133,-0.113,-0.1126,-0.1126,-0.1125,-0.1124,-0.1124,-0.1123,-0.1123,-0.1115,-0.1109,-0.112,-0.111,-0.1117,-0.1117,-0.1119,-0.1119,-0.1143,-0.1121,-0.1121,-0.1121,-0.1121,0,-0.1153,-0.1159,-0.1147,-0.115,-0.1156,-0.1147,-0.1152,-0.1149,-0.1145,-0.1147,-0.1137,-0.1139,-0.113,-0.113,-0.1125,-0.1128,-0.1129,-0.1126,-0.1124,-0.1126,-0.1126,-0.1125,-0.1124,-0.1121,-0.1121,-0.1121,-0.1121,0,-0.1177,-0.1169,-0.1174,-0.1167,-0.1165,-0.1169,-0.1163,-0.1165,-0.116,-0.1162,-0.1162,-0.1154,-0.1155,-0.1147,-0.1146,-0.1142,-0.1148,-0.1145,-0.1149,-0.1148,-0.1154,-0.1153,-0.1178,-0.1181,-0.1157,-0.1158,-0.1158,0,-0.119,-0.1193,-0.1186,-0.1187,-0.1184,-0.1185,-0.1185,-0.1176,-0.1176,-0.1171,-0.1174,-0.1173,-0.1172,-0.1173,-0.1167,-0.1166,-0.1162,-0.1171,-0.1162,-0.1164,-0.1161,-0.1161,-0.116,-0.1173,-0.1173,-0.1173,-0.1174,0,-0.1213,-0.1209,-0.1209,-0.1207,-0.1206,-0.1205,-0.1202,-0.1203,-0.1193,-0.1194,-0.1193,-0.1192,-0.1191,-0.119,-0.1188,-0.1185,-0.1177,-0.1176,-0.1178,-0.1179,-0.1181,-0.1179,-0.1153,-0.1176,-0.1176,-0.1175,-0.1175,-0.1175,-0.1231,-0.1234,-0.1229,-0.1228,-0.1225,-0.1223,-0.1224,-0.1219,-0.1219,-0.1217,-0.1211,-0.1212,-0.1207,-0.1203,-0.1201,-0.1201,-0.1196,-0.1199,-0.1199,-0.1199,-0.12,-0.1182,-0.1201,-0.1201,-0.12,-0.12,-0.12,0,-0.1254,-0.125,-0.1249,-0.1246,-0.1245,-0.1238,-0.1235,-0.1235,-0.1235,-0.1232,-0.1231,-0.123,-0.1229,-0.1222,-0.1221,-0.1222,-0.1218,-0.1221,-0.1221,-0.122,-0.1205,-0.1203,-0.1224,-0.1224,-0.1224,-0.1224,-0.1224,-0.1224,-0.1265,-0.1268,-0.1264,-0.1265,-0.1261,-0.1261,-0.1259,-0.1257,-0.1254,-0.1253,-0.1252,-0.1248,-0.1243,-0.1241,-0.1239,-0.1237,-0.1237,-0.1241,-0.1238,-0.1224,-0.1221,-0.1219,-0.1218,-0.1241,-0.1241,-0.1253,-0.1253,-0.1253]},{"header":{"parameterUnit":"m.s-1","parameterCategory":1,"la1":30.2991,"la2":30.254,"lo1":-89.0895,"lo2":-89.0444,"dy":0.0017,"dx":0.0017,"nx":28,"ny":28,"refTime":"2025-07-13T21:00:00:Z","depth":0,"parameterNumber":3,"parameterNumberName":"V-component_of_WINDS"},"data":[0,0,0,0,0,0,0,0,0,0,0,0,0,0,0,0,0,0,0,0,0,0,0,0,0,0,0,0,0,0,0,0,0,0,0,0,0,0,0,0,0,0,0,0,0,0,0,0,0,0,0,0,0,0,0,0,0,0,-0.0756,-0.0757,0,-0.085,-0.0851,-0.0852,-0.0872,-0.0872,-0.0871,-0.087,-0.0967,-0.097,-0.0973,0,0,0,0,0,0,0,0,0,0,0,0,0,-0.0597,-0.06,-0.0756,-0.0757,-0.0759,-0.085,-0.0851,-0.0852,-0.0872,-0.0872,-0.0871,-0.087,-0.0966,-0.097,-0.0974,0,0,0,0,0,0,0,0,0,0,0,0,0,-0.0676,-0.0601,-0.0756,-0.078,-0.0783,-0.0849,-0.0851,-0.0852,-0.0873,-0.0872,-0.0871,-0.087,-0.0965,-0.097,-0.0974,-0.1024,0,0,-0.0989,-0.0991,0,0,0,0,0,0,0,0,-0.0671,-0.0682,-0.0775,-0.0778,-0.0782,-0.0848,-0.083,-0.091,-0.0873,-0.0839,-0.087,-0.0869,-0.0929,-0.0936,-0.0956,-0.1029,-0.1033,-0.0989,-0.0992,-0.0994,-0.0996,0,0,0,0,0,0,0,-0.0666,-0.0678,-0.0793,-0.0776,-0.0781,-0.0786,-0.0796,-0.0845,-0.0888,-0.0841,-0.0843,-0.0854,-0.093,-0.0951,-0.0958,-0.1034,-0.0989,-0.0994,-0.0997,-0.0998,-0.1153,-0.1154,0,0,0,0,0,0,-0.0656,-0.0673,-0.079,-0.0796,-0.0723,-0.079,-0.0801,-0.0828,-0.0888,-0.0896,-0.0855,-0.0854,-0.0944,-0.0953,-0.0962,-0.1025,-0.0994,-0.0999,-0.1002,-0.1152,-0.1153,-0.1155,0,0,0,0,0,0,-0.0652,-0.0666,-0.0787,-0.0735,-0.0751,-0.0794,-0.0824,-0.083,-0.0852,-0.0898,-0.0905,-0.0868,-0.0943,-0.0955,-0.1009,-0.1028,-0.1001,-0.1005,-0.115,-0.1152,-0.1154,-0.115,0,0,0,0,0,0,-0.0648,-0.0665,-0.0684,-0.0735,-0.0753,-0.0831,-0.0825,-0.0833,-0.086,-0.086,-0.0913,-0.092,-0.0943,-0.1001,-0.1013,-0.1035,-0.1009,-0.1149,-0.1151,-0.1153,-0.1149,-0.1152,-0.1154,0,0,0,0,0,-0.0642,-0.068,-0.0685,-0.0699,-0.0778,-0.0832,-0.0843,-0.0868,-0.0861,-0.0881,-0.0911,-0.0919,-0.1024,-0.1007,-0.102,-0.1043,-0.1148,-0.1151,-0.1153,-0.1148,-0.1151,-0.1154,0,0,0,0,0,0,-0.063,-0.0687,-0.0693,-0.0748,-0.0785,-0.0836,-0.0862,-0.0871,-0.0911,-0.091,-0.0941,-0.0952,-0.1004,-0.1029,-0.1008,-0.1095,-0.1086,-0.1091,-0.1077,-0.1081,-0.1083,-0.1076,-0.1013,0,0,0,0,0,-0.0634,-0.0673,-0.072,-0.0764,-0.0782,-0.0819,-0.0843,-0.086,-0.0899,-0.0915,-0.0949,-0.0987,-0.1029,-0.1056,-0.1097,-0.1152,-0.1164,-0.1175,-0.1178,-0.118,-0.1184,-0.1216,-0.1221,-0.1164,-0.1164,-0.1164,0,0,-0.0642,-0.0678,-0.07,-0.0763,-0.0793,-0.0833,-0.0832,-0.0874,-0.0904,-0.0922,-0.0974,-0.1,-0.1045,-0.11,-0.1125,-0.1122,-0.1203,-0.1183,-0.1184,-0.1188,-0.1219,-0.1225,-0.1229,-0.1166,-0.1165,-0.1165,0,0,-0.0677,-0.0708,-0.0748,-0.0779,-0.0825,-0.0849,-0.0858,-0.0907,-0.0925,-0.0978,-0.0992,-0.1028,-0.11,-0.1131,-0.1157,-0.1204,-0.1213,-0.1216,-0.1231,-0.1261,-0.1266,-0.127,-0.1287,-0.1293,-0.1221,-0.1221,-0.1221,0,-0.0682,-0.0743,-0.0768,-0.081,-0.0837,-0.0854,-0.0895,-0.0924,-0.0981,-0.0999,-0.0995,-0.1085,-0.1116,-0.1178,-0.119,-0.121,-0.1222,-0.1211,-0.1263,-0.1267,-0.1271,-0.1288,-0.1295,-0.1221,-0.1221,-0.1221,-0.1221,0,-0.0746,-0.0788,-0.0815,-0.0869,-0.0899,-0.0941,-0.0973,-0.1,-0.1014,-0.1038,-0.1092,-0.113,-0.1179,-0.1195,-0.1209,-0.126,-0.1256,-0.1257,-0.1248,-0.1277,-0.1293,-0.13,-0.1221,-0.1221,-0.1221,-0.1221,0,0,-0.0778,-0.0845,-0.0855,-0.088,-0.0931,-0.0964,-0.1006,-0.1054,-0.1077,-0.1116,-0.1152,-0.1212,-0.1213,-0.1242,-0.1259,-0.1285,-0.1321,-0.1283,-0.1285,-0.1289,-0.138,-0.1379,-0.1386,-0.1327,-0.1328,-0.1329,-0.1376,0,-0.082,-0.0895,-0.0919,-0.0982,-0.1021,-0.1038,-0.1074,-0.111,-0.1134,-0.1171,-0.1197,-0.1239,-0.1237,-0.1255,-0.1281,-0.1311,-0.1339,-0.1308,-0.1361,-0.1363,-0.135,-0.1395,-0.1395,-0.1437,-0.1382,-0.1383,-0.1384,0,-0.088,-0.0919,-0.0986,-0.1033,-0.105,-0.1082,-0.1128,-0.1163,-0.1204,-0.1219,-0.1251,-0.1266,-0.1311,-0.1299,-0.1362,-0.134,-0.1363,-0.1381,-0.1383,-0.139,-0.1376,-0.1403,-0.1451,-0.1457,-0.1394,-0.1394,-0.1393,0,-0.0896,-0.0966,-0.1015,-0.1036,-0.1092,-0.1114,-0.1138,-0.1179,-0.1206,-0.1245,-0.1263,-0.1308,-0.1333,-0.1367,-0.1394,-0.1383,-0.1454,-0.1445,-0.1469,-0.1468,-0.1484,-0.1483,-0.1537,-0.1498,-0.1498,-0.1497,-0.1497,0,-0.0942,-0.0982,-0.1023,-0.1054,-0.1099,-0.1126,-0.1171,-0.1196,-0.1232,-0.1268,-0.1284,-0.1318,-0.1351,-0.1389,-0.141,-0.1459,-0.1469,-0.1484,-0.1489,-0.1483,-0.1481,-0.1499,-0.1497,-0.1499,-0.1499,-0.1498,-0.1498,0,-0.0968,-0.0998,-0.1052,-0.11,-0.1114,-0.1145,-0.1187,-0.1217,-0.1241,-0.1286,-0.1298,-0.1336,-0.1381,-0.1411,-0.1469,-0.1484,-0.1537,-0.1541,-0.1523,-0.1525,-0.1548,-0.1546,-0.1616,-0.1627,-0.158,-0.158,-0.1581,0,-0.0996,-0.1027,-0.1078,-0.1103,-0.1128,-0.1168,-0.1195,-0.1223,-0.1251,-0.13,-0.1324,-0.1371,-0.1409,-0.1481,-0.1514,-0.1558,-0.1564,-0.1586,-0.1571,-0.1563,-0.1565,-0.1563,-0.1566,-0.1588,-0.1589,-0.1589,-0.1589,0,-0.1041,-0.1054,-0.1093,-0.1137,-0.1169,-0.1205,-0.1242,-0.1261,-0.1295,-0.1326,-0.1372,-0.1402,-0.1461,-0.1506,-0.1554,-0.1579,-0.159,-0.1593,-0.1601,-0.1596,-0.1584,-0.1591,-0.153,-0.1592,-0.1592,-0.1591,-0.1591,-0.1591,-0.107,-0.1098,-0.1139,-0.1182,-0.1212,-0.1245,-0.1276,-0.1303,-0.1342,-0.1392,-0.1406,-0.1454,-0.1495,-0.1559,-0.1586,-0.1624,-0.1622,-0.1633,-0.1636,-0.1639,-0.1639,-0.1577,-0.1633,-0.1633,-0.1633,-0.1633,-0.1632,0,-0.1116,-0.1143,-0.1182,-0.1232,-0.1266,-0.1272,-0.1312,-0.134,-0.1382,-0.1419,-0.1456,-0.1509,-0.1554,-0.159,-0.1636,-0.166,-0.1666,-0.1671,-0.167,-0.1675,-0.1638,-0.1627,-0.1665,-0.1665,-0.1665,-0.1665,-0.1665,-0.1665,-0.1145,-0.1194,-0.1211,-0.1275,-0.1302,-0.1349,-0.1371,-0.1402,-0.1432,-0.149,-0.1527,-0.155,-0.1587,-0.1635,-0.1676,-0.1686,-0.1702,-0.1706,-0.1717,-0.1682,-0.1678,-0.1675,-0.1664,-0.1709,-0.1709,-0.1751,-0.1751,-0.1752]}]]